DW8231 Weather Reports


Display with metric or nautical units.
time (UTC)temp
F
wind
direction
speed
MPH
gust
MPH
rain 1hr
in
rain 24hr
in
rain mn
in
humidity
%
barometer
mb
20260905203018 80 53 0.0 0.0 0.00 0.00 0.00 71 1014.4
20260905202519 80 73 0.0 0.0 0.00 0.00 0.00 71 1014.4
20260905202019 80 106 0.0 0.0 0.00 0.00 0.00 71 1014.6
20260905201525 80 100 0.0 0.0 0.00 0.00 0.00 71 1014.7
20260905201016 80 103 0.0 0.0 0.00 0.00 0.00 71 1014.9
20260905200016 79 101 0.0 0.0 0.00 0.00 0.00 72 1014.9
20260905195515 79 124 0.0 0.0 0.00 0.00 0.00 73 1014.9
20260905195014 79 80 0.0 0.0 0.00 0.00 0.00 74 1014.9
20260905194514 79 115 0.0 0.0 0.00 0.00 0.00 73 1015.0
20260905194014 79 108 0.0 0.0 0.00 0.00 0.00 73 1015.1
20260905193514 79 36 0.0 0.0 0.00 0.00 0.00 73 1014.9
20260905193014 79 46 0.0 0.0 0.00 0.00 0.00 73 1015.1
20260905192513 79 120 0.0 0.0 0.00 0.00 0.00 73 1015.2
20260905192012 79 76 0.0 0.0 0.00 0.00 0.00 74 1015.2
20260905191512 79 71 0.0 0.0 0.00 0.00 0.00 73 1015.1
20260905191012 79 42 0.0 0.0 0.00 0.00 0.00 74 1015.1
20260905190013 79 142 0.0 0.0 0.00 0.00 0.00 74 1015.1
20260905185510 79 105 0.0 0.0 0.00 0.00 0.00 74 1015.2
20260905185011 79 144 0.0 0.0 0.00 0.00 0.00 74 1015.1
20260905184509 79 52 0.0 0.0 0.00 0.00 0.00 75 1015.1
20260905184008 78 117 0.0 0.0 0.00 0.00 0.00 75 1015.0
20260905183508 78 149 0.0 0.0 0.00 0.00 0.00 75 1015.0
20260905183008 78 67 0.0 0.0 0.00 0.00 0.00 76 1015.0
20260905182507 78 80 0.0 0.0 0.00 0.00 0.00 77 1015.0
20260905182006 77 122 0.0 0.0 0.00 0.00 0.00 76 1015.1
20260905181506 78 112 0.0 0.0 0.00 0.00 0.00 77 1015.2
20260905181005 78 118 0.0 0.0 0.00 0.00 0.00 76 1015.3
20260905180005 78 113 0.0 0.0 0.00 0.00 0.00 78 1015.4
20260905175507 77 74 0.0 0.0 0.00 0.00 0.00 79 1015.5
20260905175003 77 148 0.0 0.0 0.00 0.00 0.00 79 1015.4
20260905174503 77 119 0.0 0.0 0.00 0.00 0.00 80 1015.6
20260905174001 77 122 0.0 0.0 0.00 0.00 0.00 82 1015.7
20260905173559 76 174 0.0 0.0 0.00 0.00 0.00 84 1015.7
20260905173104 75 105 0.0 0.0 0.00 0.00 0.00 85 1015.9
20260905172557 75 109 0.0 0.0 0.00 0.00 0.00 86 1016.0
20260905172055 75 117 0.0 0.0 0.00 0.00 0.00 87 1016.1
20260905171553 75 78 0.0 0.0 0.00 0.00 0.00 89 1016.0
20260905171052 74 44 0.0 0.0 0.00 0.00 0.00 89 1016.0
20260905170049 74 116 0.0 0.0 0.00 0.00 0.00 91 1015.9
20260905165548 73 116 0.0 0.0 0.00 0.00 0.00 91 1016.0
20260905165050 73 115 0.0 0.0 0.00 0.00 0.00 92 1016.0
20260905164545 73 71 0.0 0.0 0.00 0.00 0.00 93 1016.0
20260905164044 72 50 0.0 0.0 0.00 0.00 0.00 93 1016.0
20260905163542 72 42 0.0 0.0 0.00 0.00 0.00 93 1016.1
20260905163041 72 40 0.0 0.0 0.00 0.00 0.00 94 1016.2
20260905162541 72 40 0.0 0.0 0.00 0.00 0.00 94 1016.1
20260905162041 72 40 0.0 0.0 0.00 0.00 0.00 94 1016.2
20260905161539 71 40 0.0 0.0 0.00 0.00 0.00 94 1016.0
20260905161039 71 40 0.0 0.0 0.00 0.00 0.00 94 1016.0
20260905160041 71 40 0.0 0.0 0.00 0.00 0.00 94 1015.5
20260905155541 70 39 0.0 0.0 0.00 0.00 0.00 94 1015.4
20260905155041 70 40 0.0 0.0 0.00 0.00 0.00 94 1015.5
20260905154540 70 40 0.0 0.0 0.00 0.00 0.00 94 1015.5
20260905154043 70 38 0.0 0.0 0.00 0.00 0.00 94 1015.5
20260905153541 70 52 0.0 0.0 0.00 0.00 0.00 94 1015.5
20260905153040 70 43 0.0 0.0 0.00 0.00 0.00 94 1015.5
20260905152541 70 47 0.0 0.0 0.00 0.00 0.00 94 1015.6
20260905152040 69 47 0.0 0.0 0.00 0.00 0.00 94 1015.8
20260905151546 69 42 0.0 0.0 0.00 0.00 0.00 94 1015.8
20260905151038 69 42 0.0 0.0 0.00 0.00 0.00 94 1015.7
20260905150038 69 26 0.0 0.0 0.00 0.00 0.00 94 1015.5
20260905145537 69 56 0.0 0.0 0.00 0.00 0.00 94 1015.6
20260905145038 69 24 0.0 0.0 0.00 0.00 0.00 94 1015.5
20260905144538 69 43 0.0 0.0 0.00 0.00 0.00 94 1015.5
20260905144039 69 44 0.0 0.0 0.00 0.00 0.00 94 1015.5
20260905143542 69 44 0.0 0.0 0.00 0.00 0.00 94 1015.5
20260905143047 69 44 0.0 0.0 0.00 0.00 0.00 94 1015.5
20260905142539 69 45 0.0 0.0 0.00 0.00 0.00 94 1015.6
20260905142038 69 45 0.0 0.0 0.00 0.00 0.00 94 1015.7
20260905141537 69 45 0.0 0.0 0.00 0.00 0.00 94 1015.6
20260905141036 69 45 0.0 0.0 0.00 0.00 0.00 94 1015.6
20260905140037 69 45 0.0 0.0 0.00 0.00 0.00 94 1015.5
20260905135538 69 45 0.0 0.0 0.00 0.00 0.00 94 1015.4
20260905135035 69 45 0.0 0.0 0.00 0.00 0.00 94 1015.3
20260905134548 69 45 0.0 0.0 0.00 0.00 0.00 94 1015.4
20260905134034 68 45 0.0 0.0 0.00 0.00 0.00 94 1015.2
20260905133535 68 45 0.0 0.0 0.00 0.00 0.00 94 1015.1
20260905133034 68 46 0.0 0.0 0.00 0.00 0.00 94 1014.9
20260905132532 68 45 0.0 0.0 0.00 0.00 0.00 94 1014.7
20260905132034 68 45 0.0 0.0 0.00 0.00 0.00 94 1014.7
20260905131531 68 46 0.0 0.0 0.00 0.00 0.00 94 1014.6
20260905131030 68 46 0.0 0.0 0.00 0.00 0.00 94 1014.5
20260905130030 68 46 0.0 0.0 0.00 0.00 0.00 94 1014.1
20260905125529 68 45 0.0 0.0 0.00 0.00 0.00 94 1014.2
20260905125029 68 49 0.0 0.0 0.00 0.00 0.00 94 1014.1
20260905124536 68 66 0.0 0.0 0.00 0.00 0.00 94 1014.0
20260905124031 68 15 0.0 0.0 0.00 0.00 0.00 94 1014.0
20260905123528 68 17 0.0 0.0 0.00 0.00 0.00 94 1014.0
20260905123028 68 17 0.0 0.0 0.00 0.00 0.00 94 1014.0
20260905122531 68 17 0.0 0.0 0.00 0.00 0.00 94 1014.0
20260905122028 67 16 0.0 0.0 0.00 0.00 0.00 94 1014.0
20260905121527 67 17 0.0 0.0 0.00 0.00 0.00 94 1014.1
20260905121027 67 20 0.0 0.0 0.00 0.00 0.00 94 1014.0
20260905120027 67 19 0.0 0.0 0.00 0.00 0.00 94 1014.0
20260905115527 67 18 0.0 0.0 0.00 0.00 0.00 94 1014.0
20260905115027 67 18 0.0 0.0 0.00 0.00 0.00 94 1013.9
20260905114525 67 17 0.0 0.0 0.00 0.00 0.00 94 1013.8
20260905114030 67 17 0.0 0.0 0.00 0.00 0.00 94 1014.0
20260905113526 67 16 0.0 0.0 0.00 0.00 0.00 94 1013.9
20260905113024 67 16 0.0 0.0 0.00 0.00 0.00 94 1013.8
20260905112526 67 17 0.0 0.0 0.00 0.00 0.00 94 1013.7
20260905112024 67 17 0.0 0.0 0.00 0.00 0.00 94 1013.7
20260905111524 67 17 0.0 0.0 0.00 0.00 0.00 94 1013.6
20260905111025 67 16 0.0 0.0 0.00 0.00 0.00 94 1013.6
20260905110026 67 16 0.0 0.0 0.00 0.00 0.00 94 1013.5
20260905105525 67 16 0.0 0.0 0.00 0.00 0.00 94 1013.6
20260905105025 67 16 0.0 0.0 0.00 0.00 0.00 94 1013.6
20260905104526 67 15 0.0 0.0 0.00 0.00 0.00 94 1013.5
20260905104029 67 15 0.0 0.0 0.00 0.00 0.00 94 1013.4
20260905103525 67 15 0.0 0.0 0.00 0.00 0.00 94 1013.4
20260905103025 67 15 0.0 0.0 0.00 0.00 0.00 94 1013.4
20260905102524 67 15 0.0 0.0 0.00 0.00 0.00 94 1013.7
20260905102024 67 15 0.0 0.0 0.00 0.00 0.00 94 1013.7
20260905101526 67 15 0.0 0.0 0.00 0.00 0.00 94 1013.4
20260905101023 66 15 0.0 0.0 0.00 0.00 0.00 94 1013.0
20260905100024 66 15 0.0 0.0 0.00 0.00 0.00 94 1012.8
20260905095523 66 15 0.0 0.0 0.00 0.00 0.00 94 1012.6
20260905095023 66 19 0.0 0.0 0.00 0.00 0.00 94 1012.6
20260905094524 66 19 0.0 0.0 0.00 0.00 0.00 94 1012.7
20260905094023 66 11 0.0 0.0 0.00 0.00 0.00 94 1012.7
20260905093523 66 11 0.0 0.0 0.00 0.00 0.00 94 1012.7
20260905093023 66 30 0.0 0.0 0.00 0.00 0.00 94 1012.7
20260905092522 66 31 0.0 0.0 0.00 0.00 0.00 94 1012.7
20260905092022 66 35 0.0 0.0 0.00 0.00 0.00 94 1012.9
20260905091523 66 5 0.0 0.0 0.00 0.00 0.00 94 1012.9
20260905091021 66 10 0.0 0.0 0.00 0.00 0.00 94 1012.8
20260905090023 66 28 0.0 0.0 0.00 0.00 0.00 94 1013.1
20260905085523 66 51 0.0 0.0 0.00 0.00 0.00 93 1013.1
20260905085022 66 42 0.0 0.0 0.00 0.00 0.00 93 1013.2
20260905084522 66 28 0.0 0.0 0.00 0.00 0.00 93 1013.2
20260905084022 66 17 0.0 0.0 0.00 0.00 0.00 93 1013.2
20260905083522 66 35 0.0 0.0 0.00 0.00 0.00 93 1013.3
20260905083025 66 35 0.0 0.0 0.00 0.00 0.00 93 1013.4
20260905082522 66 29 0.0 0.0 0.00 0.00 0.00 93 1013.3
20260905082022 66 49 0.0 0.0 0.00 0.00 0.00 93 1013.2
20260905081528 66 40 0.0 0.0 0.00 0.00 0.00 93 1013.2
20260905081021 66 20 0.0 0.0 0.00 0.00 0.00 93 1013.1
20260905080022 66 39 0.0 0.0 0.00 0.00 0.00 93 1013.1
20260905075522 66 24 0.0 0.0 0.00 0.00 0.00 93 1013.2
20260905075021 66 22 0.0 0.0 0.00 0.00 0.00 93 1013.2
20260905074530 66 22 0.0 0.0 0.00 0.00 0.00 93 1013.3
20260905074022 66 22 0.0 0.0 0.00 0.00 0.00 93 1013.4
20260905073521 66 22 0.0 0.0 0.00 0.00 0.00 93 1013.4
20260905073020 66 22 0.0 0.0 0.00 0.00 0.00 93 1013.4
20260905072520 66 22 0.0 0.0 0.00 0.00 0.00 92 1013.3
20260905072022 66 22 0.0 0.0 0.00 0.00 0.00 93 1013.3
20260905071519 66 22 0.0 0.0 0.00 0.00 0.00 92 1013.4
20260905071021 66 22 0.0 0.0 0.00 0.00 0.00 92 1013.3
20260905070019 66 22 0.0 0.0 0.00 0.00 0.00 92 1013.4
20260905065518 67 22 0.0 0.0 0.00 0.00 0.00 92 1013.5
20260905065018 67 22 0.0 0.0 0.00 0.00 0.00 92 1013.5
20260905064517 67 22 0.0 0.0 0.00 0.00 0.00 92 1013.5
20260905064020 67 22 0.0 0.0 0.00 0.00 0.00 92 1013.4
20260905063516 67 22 0.0 0.0 0.00 0.00 0.00 92 1013.4
20260905063015 67 22 0.0 0.0 0.00 0.00 0.00 91 1013.4
20260905062513 67 22 0.0 0.0 0.00 0.00 0.00 91 1013.2
20260905062013 68 22 0.0 0.0 0.00 0.00 0.00 91 1013.1
20260905061512 68 22 0.0 0.0 0.00 0.00 0.00 91 1013.1
20260905061011 68 22 0.0 0.0 0.00 0.00 0.00 91 1013.2
20260905060010 68 22 0.0 0.0 0.00 0.00 0.00 91 1013.0
20260905055509 68 22 0.0 0.0 0.00 0.00 0.00 90 1012.9
20260905055008 68 22 0.0 0.0 0.00 0.00 0.00 90 1012.8
20260905054508 68 22 0.0 0.0 0.00 0.00 0.00 90 1012.7
20260905054007 69 22 0.0 0.0 0.00 0.00 0.00 90 1012.7
20260905053507 69 22 0.0 0.0 0.00 0.00 0.00 90 1012.5
20260905053005 69 22 0.0 0.0 0.00 0.00 0.00 90 1012.5
20260905052505 69 22 0.0 0.0 0.00 0.00 0.00 89 1012.6
20260905052005 69 22 0.0 0.0 0.00 0.00 0.00 89 1012.6
20260905051506 69 22 0.0 0.0 0.00 0.00 0.00 89 1012.5
20260905051003 69 22 0.0 0.0 0.00 0.00 0.00 89 1012.6
20260905050004 70 22 0.0 0.0 0.00 0.00 0.00 88 1012.6
20260905045503 70 22 0.0 0.0 0.00 0.00 0.00 88 1012.6
20260905045002 70 22 0.0 0.0 0.00 0.00 0.00 88 1012.7
20260905044502 70 22 0.0 0.0 0.00 0.00 0.00 88 1012.6
20260905044100 70 22 0.0 0.0 0.00 0.00 0.00 87 1012.6
20260905043600 70 22 0.0 0.0 0.00 0.00 0.00 87 1012.4
20260905043059 71 22 0.0 0.0 0.00 0.00 0.00 87 1012.4
20260905042602 71 22 0.0 0.0 0.00 0.00 0.00 86 1012.5
20260905042059 71 22 0.0 0.0 0.00 0.00 0.00 86 1012.5
20260905041600 71 22 0.0 0.0 0.00 0.00 0.00 86 1012.5
20260905041056 71 22 0.0 0.0 0.00 0.00 0.00 85 1012.5
20260905040058 72 22 0.0 0.0 0.00 0.00 0.00 85 1012.6
20260905035555 72 22 0.0 0.0 0.00 0.00 0.00 84 1012.6
20260905035054 72 22 0.0 0.0 0.00 0.00 0.00 84 1012.6
20260905034554 72 22 0.0 0.0 0.00 0.00 0.00 84 1012.6
20260905034053 73 22 0.0 0.0 0.00 0.00 0.00 84 1012.6
20260905033552 73 22 0.0 0.0 0.00 0.00 0.00 83 1012.6
20260905033052 73 22 0.0 0.0 0.00 0.00 0.00 83 1012.6
20260905032551 73 22 0.0 0.0 0.00 0.00 0.00 83 1012.5
20260905032049 73 22 0.0 0.0 0.00 0.00 0.00 83 1012.3
20260905031553 74 22 0.0 0.0 0.00 0.00 0.00 82 1012.3
20260905031047 74 22 0.0 0.0 0.00 0.00 0.00 82 1012.4
20260905030049 74 19 0.0 0.0 0.00 0.00 0.00 82 1012.2
20260905025547 74 17 0.0 0.0 0.00 0.00 0.00 82 1012.1
20260905025046 74 14 0.0 0.0 0.00 0.00 0.00 81 1012.0
20260905024550 75 9 0.0 0.0 0.00 0.00 0.00 81 1011.8
20260905024044 75 9 0.0 0.0 0.00 0.00 0.00 81 1011.8
20260905023543 75 5 0.0 0.0 0.00 0.00 0.00 80 1011.7
20260905023043 75 355 0.0 0.0 0.00 0.00 0.00 80 1011.7
20260905022541 76 355 0.0 0.0 0.00 0.00 0.00 79 1011.6
20260905022041 76 355 0.0 0.0 0.00 0.00 0.00 79 1011.6
20260905021540 76 355 0.0 0.0 0.00 0.00 0.00 79 1011.6
20260905021039 76 355 0.0 0.0 0.00 0.00 0.00 79 1011.5
20260905020038 76 360 0.0 0.0 0.00 0.00 0.00 78 1011.5
20260905015538 77 360 0.0 0.0 0.00 0.00 0.00 78 1011.4
20260905015036 77 360 0.0 0.0 0.00 0.00 0.00 78 1011.3
20260905014536 77 355 0.0 0.0 0.00 0.00 0.00 77 1011.2
20260905014034 77 355 0.0 0.0 0.00 0.00 0.00 77 1011.2
20260905013537 77 360 0.0 0.0 0.00 0.00 0.00 77 1011.1
20260905013033 78 360 0.0 0.0 0.00 0.00 0.00 77 1011.0
20260905012531 78 350 0.0 0.0 0.00 0.00 0.00 76 1011.0
20260905012030 78 350 0.0 0.0 0.00 0.00 0.00 76 1010.9
20260905011528 78 350 0.0 0.0 0.00 0.00 0.00 76 1010.8
20260905011028 79 350 0.0 0.0 0.00 0.00 0.00 76 1010.7
20260905010032 79 348 0.0 0.0 0.00 0.00 0.00 75 1010.6
20260905005525 80 348 0.0 0.0 0.00 0.00 0.00 75 1010.6
20260905005025 80 348 0.0 0.0 0.00 0.00 0.00 75 1010.6
20260905004523 81 348 0.0 0.0 0.00 0.00 0.00 74 1010.5
20260905004021 81 348 0.0 0.0 0.00 0.00 0.00 74 1010.5
20260905003519 82 348 0.0 1.0 0.00 0.00 0.00 74 1010.4
20260905003018 82 348 0.0 0.0 0.00 0.00 0.00 73 1010.4
20260905002517 82 348 0.0 0.0 0.00 0.00 0.00 73 1010.5
20260905002016 83 348 0.0 0.0 0.00 0.00 0.00 73 1010.5
20260905001515 83 348 0.0 0.0 0.00 0.00 0.00 72 1010.4
20260905001016 84 348 0.0 0.0 0.00 0.00 0.00 72 1010.3
20260905000015 85 348 0.0 0.0 0.00 0.00 0.00 70 1010.2
20260904235513 85 348 0.0 0.0 0.00 0.00 0.00 71 1010.3
20260904235011 85 348 0.0 0.0 0.00 0.00 0.00 70 1010.3
20260904234511 85 348 0.0 0.0 0.00 0.00 0.00 69 1010.3
20260904234012 86 348 0.0 0.0 0.00 0.00 0.00 69 1010.3
20260904233510 86 348 0.0 0.0 0.00 0.00 0.00 69 1010.2
20260904233015 86 348 0.0 0.0 0.00 0.00 0.00 69 1010.2
20260904232510 86 334 0.0 0.0 0.00 0.00 0.00 69 1010.1
20260904232010 86 334 0.0 0.0 0.00 0.00 0.00 68 1010.1
20260904231509 87 334 0.0 0.0 0.00 0.00 0.00 67 1010.0
20260904231009 87 334 0.0 0.0 0.00 0.00 0.00 67 1010.1
20260904230014 87 334 0.0 0.0 0.00 0.00 0.00 66 1010.0
20260904225507 87 334 0.0 0.0 0.00 0.00 0.00 65 1009.9
20260904225010 87 334 0.0 0.0 0.00 0.00 0.00 66 1009.9
20260904224509 87 334 0.0 0.0 0.00 0.00 0.00 66 1009.9
20260904224006 87 326 0.0 0.0 0.00 0.00 0.00 67 1009.9
20260904223511 87 325 0.0 0.0 0.00 0.00 0.00 66 1009.8
20260904223006 87 336 0.0 0.0 0.00 0.00 0.00 66 1009.8
20260904222508 87 336 0.0 0.0 0.00 0.00 0.00 66 1009.7
20260904222005 88 336 0.0 0.0 0.00 0.00 0.00 67 1009.6
20260904221505 88 337 0.0 0.0 0.00 0.00 0.00 67 1009.6
20260904221005 88 336 0.0 0.0 0.00 0.00 0.00 67 1009.5
20260904220004 88 336 0.0 0.0 0.00 0.00 0.00 67 1009.4
20260904215504 88 336 0.0 0.0 0.00 0.00 0.00 67 1009.4
20260904215004 88 336 0.0 0.0 0.00 0.00 0.00 69 1009.4
20260904214513 88 339 0.0 0.0 0.00 0.00 0.00 68 1009.4
20260904214004 88 338 0.0 0.0 0.00 0.00 0.00 67 1009.4
20260904213504 88 340 0.0 0.0 0.00 0.00 0.00 67 1009.4
20260904213004 88 330 0.0 0.0 0.00 0.00 0.00 67 1009.3
20260904212504 88 330 0.0 0.0 0.00 0.00 0.00 68 1009.4
20260904212004 88 331 0.0 0.0 0.00 0.00 0.00 68 1009.4
20260904211503 88 330 0.0 0.0 0.00 0.00 0.00 68 1009.3
20260904211005 88 329 0.0 0.0 0.00 0.00 0.00 68 1009.4
20260904210004 88 355 0.0 0.0 0.00 0.00 0.00 69 1009.4
20260904205503 87 319 0.0 0.0 0.00 0.00 0.00 69 1009.4
20260904205004 87 9 0.0 0.0 0.00 0.00 0.00 69 1009.4
20260904204507 87 324 0.0 0.0 0.00 0.00 0.00 70 1009.4
20260904204004 87 323 0.0 0.0 0.00 0.00 0.00 69 1009.5
20260904203504 87 9 0.0 0.0 0.00 0.00 0.00 69 1009.4